Regional Weather Roundup
Issued by NWS Charleston, SC

Current Version | Previous Version | Text Only | Print | Product List | Glossary Off
Versions: 1 2 3 4 5 6 7 8 9 10 11 12 13 14 15 16 17 18 19 20 21 22 23 24 25 26 27 28 29 30 31 32 33 34 35 36 37 38 39 40 41 42 43 44 45 46 47 48 49 50

000
ASUS42 KCHS 030227
RWRCHS

REGIONAL WEATHER ROUNDUP
NATIONAL WEATHER SERVICE CHARLESTON SC
1000 PM EDT SUN AUG 02 2015

NOTE: "FAIR" INDICATES FEW OR NO CLOUDS BELOW 12,000 FEET WITH NO
SIGNIFICANT WEATHER AND/OR OBSTRUCTIONS TO VISIBILITY.

NOT ALL STATIONS ARE QUALITY CONTROLLED BY THE NATIONAL
WEATHER SERVICE. USE DATA WITH CAUTION...ESPECIALLY
DEWPOINT OBSERVATIONS.

SCZ027-030-031-034>040-042>050-030300-
...SOUTHEAST SOUTH CAROLINA...

CITY           SKY/WX    TMP DP  RH WIND       PRES   REMARKS
N CHARLESTON   PTCLDY    79  73  82 E5        29.91S
WATERFRONT PRK   N/A     81  76  85 SE7       29.89S
MOUNT PLEASANT MOCLDY    75  75 100 E3        29.93R
JOHNS ISLAND   CLOUDY    79  77  94 CALM      29.92S
PINOPOLIS      NOT AVBL
MONCKS CORNER  FAIR      77  72  83 CALM      29.93R
SUMMERVILLE    FAIR      75  75 100 CALM      29.94R
BEAUFORT MCAS  PTCLDY    77  74  90 VRB3      29.91S
BEAUFORT ARPT  FAIR      75  75 100 CALM      29.91S FOG
HILTON HEAD IS LGT RAIN  75  75 100 CALM      29.92S
WALTERBORO     PTCLDY    77  73  88 CALM      29.93R
ALLENDALE      FAIR      79  73  83 SE5       29.91S

...SOUTHERN MIDLANDS AND PEE DEE...

CITY           SKY/WX    TMP DP  RH WIND       PRES   REMARKS
GEORGETOWN     NOT AVBL
KINGSTREE      NOT AVBL
ORANGEBURG     PTCLDY    78  69  73 SE6       29.92R
BARNWELL       FAIR      81  75  83 SE7       29.92R
AIKEN          FAIR      75  70  83 SE5       29.95R
MANNING        RAIN      73  70  88 CALM      29.92S
COLUMBIA       CLEAR     81  70  69 E6        29.91R
SUMTER         CLOUDY    78  69  73 SE5       29.90R
FLORENCE       PTCLDY    79  72  79 CALM      29.93R
MYRTLE BEACH   PTCLDY    81  72  74 S9        29.94S
N MYRTLE BEACH MOCLDY    81  72  74 S13       29.93S

$$

GAZ063-065-086>088-099>101-113>116-118-119-134>141-150-030300-
...SOUTHEAST GEORGIA...

CITY           SKY/WX    TMP DP  RH WIND       PRES   REMARKS
SAVANNAH ARPT  MOCLDY    76  73  91 E5        29.91R
HUNTER AAF     PTCLDY    76  76 100 E3        29.88S
FORT STEWART   NOT AVBL
STATESBORO     MOCLDY    76  76 100 CALM      29.91R
SYLVANIA       LGT RAIN  78  77  96 E3        29.92R
CLAXTON        NOT AVBL

...CSRA...CENTRAL AND FAR SOUTHEAST GEORGIA...

CITY           SKY/WX    TMP DP  RH WIND       PRES   REMARKS
THOMSON        CLOUDY    77  77  99 CALM      29.95R
AUGUSTA-BUSH   FAIR      74  71  91 S3        29.89R
AUGUSTA-DANIEL FAIR      79  69  71 SE3       29.91R
SWAINSBORO     MOCLDY    81  81 100 SE5       29.92R HX  91
VIDALIA        PTCLDY    77  73  88 CALM      29.91R FOG
EASTMAN        FAIR      79  79 100 SE3       29.92R
HAZLEHURST     FAIR      78  78 100 CALM      29.88R
ALMA           MOCLDY    77  73  87 E5        29.88R
WAYCROSS       MOCLDY    80  78  94 SE6       29.88R
JESUP          CLOUDY    79  77  94 SE5       29.89R
BAXLEY         MOCLDY    79  75  89 CALM      29.88R
BRUNSWICK      MOCLDY    79  75  89 S7        29.90R
SAINT SIMONS   MOCLDY    81  72  74 S8        29.89R

$$

SCZ027-028-034-036>038-045-046-048>050-GAZ119-141-030300-
...LAKE AND SUPPLEMENTAL COASTAL OBSERVATIONS...

STATION/POSITION TIME  TEMP    WIND        PRES    WAVE   SWELL
                       AIR SEA DIR/SP/G            HT/PER HT/PER/DIR
                 (UTC) (F)     (DEG/KT/KT) (MB)    (FT/S) (FT/S/D)
UPR LAKE MARION  NOT AVBL
WINYAH BAY       0100   80     170/  6     1012.0
LAKE MURRAY      0100   82     120/  3/  7 1011.9S
ACE BASIN NERRS  NOT AVBL
FORT PULASKI     0200   78 86  120/  2/  2 1013.2S
SAPELO ISLAND    0200   78     140/  6     1012.0S

$$

ANZ835-935-AMZ111-154-330-350-352-354-370-450-454-472-030300-
...C-MAN AND BUOY OBSERVATIONS...

STATION/POSITION TIME  TEMP    WIND        PRES    WAVE   SWELL
                       AIR SEA DIR/SP/G            HT/PER HT/PER/DIR
                 (UTC) (F)     (DEG/KT/KT) (MB)    (FT/S) (FT/S/D)
BUOY 41004       0150   79 83  160/ 21/ 25 1013.2R   4/ 5   2/11
BUOY 41008       0150   81 83  170/ 14/ 17 1012.5R   4/ 6   2/ 90/11
FOLLY BEACH CMAN 0200   81     160/  7/  7 1013.1R
CAPERS NEARSHORE 0108   80     150/ 16/ 19 1013.2S
FRIPP NEARSHORE  0100   81     250/ 16/ 16 1011.9R


STATION/POSITION TIME  TEMP    WIND        PRES    WAVE   SWELL
                       AIR SEA DIR/SP/G            HT/PER HT/PER/DIR
                 (UTC) (F)     (DEG/KT/KT) (MB)    (FT/S) (FT/S/D)
5E ST. MARYS GA  0121      83                N/A     5/ 5
FRYING PAN BUOY  0150   80 83  190/ 25/ 29 1014.0F   5/ 6   2/130/11
BUOY 41025       0150   81 85  230/ 16/ 17 1014.3R   4/ 4   2/190/ 7
CAPE LOOKOUT NC  0200   79     220/ 12/ 15 1014.0R
BUOY 41002       0150   81 81  210/  4/  6 1016.8R   5/ 7   5/240/ 7
BUOY 41010       0120   83 84  180/ 12/ 14 1015.2S
ST AUGUSTINE FL  0200   77 81  170/ 20/ 22 1013.4R


$$



USA.gov is the U.S. government's official web portal to all federal, state and local government web resources and services.